This is the latest recevied weather packets stored in our database for station/object KS5S. If no packets are shown the sender has not sent any weather packets the latest 10 day(s).
| Time | Temp. | Humidity | Pressure | Rain* | Wind** | Luminosity | Snow |
|---|---|---|---|---|---|---|---|
| 1777501512 | 18.33° C | 84% | 1010.7 hPa | 0 mm | - | 79 W/m² | - |
| 1777501209 | 18.33° C | 84% | 1010.9 hPa | 0 mm | - | 27 W/m² | - |
| 1777500907 | 18.33° C | 84% | 1010.8 hPa | 0 mm | - | 88 W/m² | - |
| 1777500604 | 18.33° C | 83% | 1010.9 hPa | 0 mm | - | 80 W/m² | - |
| 1777500300 | 18.33° C | 84% | 1010.5 hPa | 0 mm | - | 111 W/m² | - |
| 1777499996 | 18.33° C | 85% | 1010.6 hPa | 0 mm | - | 92 W/m² | - |
| 1777499693 | 18.33° C | 85% | 1010.5 hPa | 0 mm | - | 117 W/m² | - |
| 1777499384 | 18.33° C | 85% | 1010.6 hPa | 0 mm | - | 136 W/m² | - |
| 1777499084 | 18.33° C | 84% | 1010.9 hPa | 0 mm | - | 123 W/m² | - |
| 1777498779 | 18.33° C | 86% | 1010.8 hPa | 0 mm | - | 158 W/m² | - |
| 1777498476 | 18.33° C | 87% | 1010.9 hPa | 0 mm | - | 169 W/m² | - |
| 1777498172 | 18.33° C | 86% | 1011.2 hPa | 0 mm | - | 116 W/m² | - |
| 1777497870 | 18.33° C | 86% | 1011 hPa | 0 mm | - | 144 W/m² | - |
| 1777497566 | 18.33° C | 86% | 1011.2 hPa | 0 mm | - | 141 W/m² | - |
| 1777497262 | 18.33° C | 86% | 1011.3 hPa | 0 mm | - | 120 W/m² | - |
| 1777496959 | 18.33° C | 86% | 1011.7 hPa | 0 mm | - | 97 W/m² | - |
| 1777496656 | 18.33° C | 86% | 1011.7 hPa | 0 mm | - | 100 W/m² | - |
| 1777496352 | 18.33° C | 87% | 1011.7 hPa | 0 mm | - | 78 W/m² | - |
| 1777496049 | 17.78° C | 86% | 1011.3 hPa | 0 mm | - | 93 W/m² | - |
| 1777495744 | 17.78° C | 87% | 1010.8 hPa | 0 mm | - | 152 W/m² | - |
| 1777495441 | 17.78° C | 86% | 1010.6 hPa | 0 mm | - | 160 W/m² | - |
| 1777495136 | 18.33° C | 86% | 1010.5 hPa | 0 mm | - | 171 W/m² | - |
| 1777494834 | 17.78° C | 87% | 1010.5 hPa | 0 mm | - | 279 W/m² | - |
| 1777494532 | 17.78° C | 86% | 1010.8 hPa | 0 mm | - | 341 W/m² | - |
| 1777494229 | 17.78° C | 87% | 1010.8 hPa | 0 mm | - | 316 W/m² | - |
* Rain latest hour (hover to see other rain measurements)
** Current wind speed in m/s (hover to see current wind gust speed)